NORTHEAST SUFFOLK  -  Winter Weather Advisory Winter Weather Advisory        NORTHERN NASSAU  -  Winter Weather Advisory Winter Weather Advisory        NORTHWEST SUFFOLK  -  Winter Weather Advisory Winter Weather Advisory        SOUTHEAST SUFFOLK  -  Winter Weather Advisory Winter Weather Advisory        SOUTHERN NASSAU  -  Winter Weather Advisory Winter Weather Advisory        SOUTHWEST SUFFOLK  -  Winter Weather Advisory Winter Weather Advisory      

Active alerts

Northern Nassau
  Details for Northern Nassau Winter Weather Advisory
Southern Nassau
  Details for Southern Nassau Winter Weather Advisory
Northwest Suffolk
  Details for Northwest Suffolk Winter Weather Advisory
Southwest Suffolk
  Details for Southwest Suffolk Winter Weather Advisory
Northeast Suffolk
  Details for Northeast Suffolk Winter Weather Advisory
Southeast Suffolk
  Details for Southeast Suffolk Winter Weather Advisory


WXM80 ListenWXM80 Stop

You find our weather info also at:

UK Metoffice

WeatherCloud

Weather Underground

Northeastern Weather Network

AWEKAS

Citizen Weather Observer Program (CWOP)

HAMweather, WeatherForYou, PWS Weather


Weather Underground History page Text

Daily Summary for September 1, 2017 Units:  English    Metric   Both
« Previous Day
Next Day »
Daily Weekly Monthly Yearly Custom
  High: Low: Average:
Temperature: 74.7 °F 55.5 °F 64.8 °F
Dew Point: 54.0 °F 44.1 °F 46.8 °F
Humidity: 69 % 34 % 54 %
Wind Speed: 12.4 mph 0.0 mph 3.3 mph
Wind Gust: 18.4 mph - -
Wind:- - South
Pressure: 30.14 in 29.93 in -
Precipitation: 0.00 in    
Historical Graphs
 
 
Tabular Data for September 1, 2017
Time Temperature Dew Point Pressure Wind Wind Speed Wind Gust Humidity Rainfall Rate (Hourly)
00:02 65.9 °F 53.4 °F 29.93 in NNW 5.5 mph 10.4 mph 64 % 0.00 in
00:07 65.7 °F 54.0 °F 29.93 in NNE 7.1 mph 14.0 mph 66 % 0.00 in
00:12 65.4 °F 53.3 °F 29.94 in NNE 5.9 mph 15.0 mph 65 % 0.00 in
00:17 65.2 °F 54.0 °F 29.94 in NNE 7.2 mph 11.5 mph 67 % 0.00 in
00:22 65.0 °F 53.8 °F 29.95 in North 6.2 mph 11.5 mph 67 % 0.00 in
00:27 64.9 °F 53.7 °F 29.95 in NW 6.3 mph 9.0 mph 67 % 0.00 in
00:32 64.6 °F 53.4 °F 29.95 in NNE 3.9 mph 10.4 mph 67 % 0.00 in
00:37 64.4 °F 53.6 °F 29.95 in NNE 4.9 mph 9.2 mph 68 % 0.00 in
00:39 64.4 °F 53.6 °F 29.95 in North 6.3 mph 10.4 mph 68 % 0.00 in
00:44 64.2 °F 53.0 °F 29.95 in NNE 5.9 mph 12.7 mph 67 % 0.00 in
00:49 64.0 °F 52.8 °F 29.96 in NNW 3.7 mph 6.9 mph 67 % 0.00 in
00:54 63.8 °F 52.6 °F 29.96 in NNE 5.7 mph 18.4 mph 67 % 0.00 in
00:59 63.5 °F 51.9 °F 29.97 in NNE 5.6 mph 9.2 mph 66 % 0.00 in
01:04 63.4 °F 52.7 °F 29.96 in North 7.1 mph 10.4 mph 68 % 0.00 in
01:09 63.2 °F 52.1 °F 29.96 in NNW 7.4 mph 16.1 mph 67 % 0.00 in
01:15 63.1 °F 52.0 °F 29.96 in NNE 6.8 mph 11.5 mph 67 % 0.00 in
01:20 62.9 °F 51.8 °F 29.96 in NNW 6.3 mph 9.2 mph 67 % 0.00 in
01:25 62.8 °F 52.1 °F 29.96 in NNE 1.8 mph 5.8 mph 68 % 0.00 in
01:30 62.7 °F 52.0 °F 29.96 in NNE 2.9 mph 7.0 mph 68 % 0.00 in
01:35 62.5 °F 51.4 °F 29.96 in NNW 5.3 mph 11.5 mph 67 % 0.00 in
01:40 62.4 °F 51.3 °F 29.96 in NNE 5.8 mph 11.5 mph 67 % 0.00 in
01:45 62.3 °F 51.2 °F 29.96 in NNE 4.0 mph 9.2 mph 67 % 0.00 in
01:50 62.1 °F 50.6 °F 29.96 in NNE 3.0 mph 11.0 mph 66 % 0.00 in
01:55 62.0 °F 50.1 °F 29.96 in North 5.2 mph 9.2 mph 65 % 0.00 in
02:00 61.8 °F 50.3 °F 29.96 in North 5.6 mph 10.4 mph 66 % 0.00 in
02:05 61.7 °F 49.8 °F 29.97 in North 4.2 mph 11.5 mph 65 % 0.00 in
02:10 61.6 °F 49.3 °F 29.97 in NNW 8.6 mph 13.8 mph 64 % 0.00 in
02:15 61.5 °F 49.2 °F 29.97 in NE 7.4 mph 11.5 mph 64 % 0.00 in
02:20 61.4 °F 49.1 °F 29.97 in North 5.4 mph 12.7 mph 64 % 0.00 in
02:22 61.4 °F 49.1 °F 29.96 in NNE 6.8 mph 10.4 mph 64 % 0.00 in
02:27 61.3 °F 49.4 °F 29.97 in WNW 3.9 mph 11.5 mph 65 % 0.00 in
02:32 61.2 °F 48.9 °F 29.97 in NNE 4.3 mph 10.4 mph 64 % 0.00 in
02:37 61.1 °F 48.8 °F 29.98 in NNE 2.8 mph 10.4 mph 64 % 0.00 in
02:42 61.0 °F 49.1 °F 29.97 in NNE 3.6 mph 6.9 mph 65 % 0.00 in
02:47 60.8 °F 48.5 °F 29.97 in NNE 3.1 mph 9.2 mph 64 % 0.00 in
02:52 60.7 °F 48.4 °F 29.97 in NNW 4.9 mph 9.2 mph 64 % 0.00 in
02:57 60.6 °F 48.4 °F 29.97 in NE 4.4 mph 10.4 mph 64 % 0.00 in
03:02 60.5 °F 48.3 °F 29.97 in NNE 3.6 mph 9.0 mph 64 % 0.00 in
03:07 60.3 °F 47.6 °F 29.98 in NE 6.5 mph 9.2 mph 63 % 0.00 in
03:12 60.2 °F 48.0 °F 29.98 in NNE 2.9 mph 9.2 mph 64 % 0.00 in
03:17 60.0 °F 47.8 °F 29.97 in NE 5.2 mph 13.8 mph 64 % 0.00 in
03:22 59.9 °F 47.3 °F 29.97 in North 8.1 mph 12.7 mph 63 % 0.00 in
03:27 59.8 °F 47.6 °F 29.98 in North 6.5 mph 12.7 mph 64 % 0.00 in
03:32 59.7 °F 47.9 °F 29.98 in NE 3.9 mph 8.1 mph 65 % 0.00 in
03:37 59.6 °F 47.8 °F 29.98 in NNE 7.8 mph 11.0 mph 65 % 0.00 in
03:42 59.4 °F 47.6 °F 29.98 in North 12.4 mph 16.1 mph 65 % 0.00 in
03:48 59.3 °F 47.5 °F 29.98 in North 5.5 mph 10.0 mph 65 % 0.00 in
03:53 59.2 °F 47.4 °F 29.98 in North 5.1 mph 11.5 mph 65 % 0.00 in
03:58 59.1 °F 46.9 °F 29.98 in North 5.6 mph 13.8 mph 64 % 0.00 in
04:03 59.0 °F 47.2 °F 29.98 in NNW 8.9 mph 12.0 mph 65 % 0.00 in
04:08 58.8 °F 47.1 °F 29.99 in ENE 4.8 mph 10.4 mph 65 % 0.00 in
04:13 58.6 °F 46.9 °F 29.99 in North 5.1 mph 9.2 mph 65 % 0.00 in
04:18 58.5 °F 47.6 °F 30.00 in NNW 5.1 mph 10.0 mph 67 % 0.00 in
04:23 58.2 °F 47.7 °F 29.99 in NNE 4.6 mph 11.5 mph 68 % 0.00 in
04:28 58.0 °F 47.5 °F 30.00 in North 4.3 mph 10.0 mph 68 % 0.00 in
04:33 57.8 °F 47.7 °F 30.00 in NNE 6.2 mph 11.5 mph 69 % 0.00 in
04:38 57.5 °F 47.4 °F 30.00 in NE 4.1 mph 10.4 mph 69 % 0.00 in
04:43 57.3 °F 47.2 °F 30.00 in North 4.1 mph 8.1 mph 69 % 0.00 in
04:48 57.1 °F 46.6 °F 30.01 in NNE 2.9 mph 4.6 mph 68 % 0.00 in
04:53 57.0 °F 46.9 °F 30.01 in NNW 0.5 mph 4.0 mph 69 % 0.00 in
04:58 56.9 °F 46.8 °F 30.00 in North 4.8 mph 11.5 mph 69 % 0.00 in
05:03 56.7 °F 46.6 °F 30.01 in NNW 4.2 mph 9.0 mph 69 % 0.00 in
05:08 56.6 °F 46.5 °F 30.01 in North 4.7 mph 9.2 mph 69 % 0.00 in
05:14 56.4 °F 46.4 °F 30.01 in North 3.7 mph 11.5 mph 69 % 0.00 in
05:19 56.2 °F 45.8 °F 30.02 in NNE 5.7 mph 11.5 mph 68 % 0.00 in
05:24 56.1 °F 45.7 °F 30.02 in North 6.0 mph 8.0 mph 68 % 0.00 in
05:29 56.0 °F 45.6 °F 30.02 in NE 5.6 mph 11.5 mph 68 % 0.00 in
05:34 55.9 °F 45.5 °F 30.02 in North 6.1 mph 12.7 mph 68 % 0.00 in
05:39 55.9 °F 45.1 °F 30.02 in North 4.0 mph 9.2 mph 67 % 0.00 in
05:44 55.7 °F 45.3 °F 30.02 in NNE 4.5 mph 9.2 mph 68 % 0.00 in
05:49 55.7 °F 45.7 °F 30.03 in NNE 2.0 mph 5.0 mph 69 % 0.00 in
05:54 55.6 °F 45.2 °F 30.03 in NE 6.0 mph 10.4 mph 68 % 0.00 in
05:59 55.5 °F 45.5 °F 30.03 in NNW 1.8 mph 5.8 mph 69 % 0.00 in
06:04 55.5 °F 45.1 °F 30.03 in NE 2.4 mph 8.1 mph 68 % 0.00 in
06:09 55.6 °F 45.6 °F 30.04 in NNW 6.7 mph 8.1 mph 69 % 0.00 in
06:14 55.6 °F 45.2 °F 30.04 in NNW 2.6 mph 5.8 mph 68 % 0.00 in
06:19 55.6 °F 45.2 °F 30.05 in NNE 3.3 mph 9.0 mph 68 % 0.00 in
06:24 55.6 °F 44.8 °F 30.05 in NNW 1.7 mph 7.0 mph 67 % 0.00 in
06:29 55.5 °F 44.7 °F 30.04 in NNE 5.7 mph 6.9 mph 67 % 0.00 in
06:34 55.5 °F 44.3 °F 30.04 in North 4.3 mph 10.4 mph 66 % 0.00 in
06:39 55.5 °F 45.1 °F 30.04 in NE 4.2 mph 8.1 mph 68 % 0.00 in
06:44 55.5 °F 45.1 °F 30.04 in NNE 4.3 mph 8.1 mph 68 % 0.00 in
06:49 55.5 °F 45.5 °F 30.05 in North 4.3 mph 10.0 mph 69 % 0.00 in
06:55 55.6 °F 45.2 °F 30.05 in NNE 5.4 mph 10.4 mph 68 % 0.00 in
07:00 55.6 °F 45.2 °F 30.05 in North 3.7 mph 10.4 mph 68 % 0.00 in
07:05 55.7 °F 45.3 °F 30.05 in North 6.9 mph 8.1 mph 68 % 0.00 in
07:10 55.7 °F 45.3 °F 30.05 in NNE 3.7 mph 9.2 mph 68 % 0.00 in
07:15 55.7 °F 45.3 °F 30.06 in NE 4.4 mph 5.0 mph 68 % 0.00 in
07:20 55.7 °F 44.9 °F 30.06 in NW 1.7 mph 11.5 mph 67 % 0.00 in
07:25 55.7 °F 44.9 °F 30.06 in North 6.7 mph 7.0 mph 67 % 0.00 in
07:30 55.8 °F 45.0 °F 30.06 in NNE 3.2 mph 9.2 mph 67 % 0.00 in
07:35 55.8 °F 45.4 °F 30.06 in North 6.5 mph 9.2 mph 68 % 0.00 in
07:40 55.9 °F 44.7 °F 30.06 in ENE 2.1 mph 8.1 mph 66 % 0.00 in
07:45 55.9 °F 44.7 °F 30.06 in NE 5.2 mph 9.2 mph 66 % 0.00 in
07:50 56.0 °F 44.4 °F 30.06 in NNW 4.0 mph 6.9 mph 65 % 0.00 in
07:55 56.0 °F 45.2 °F 30.06 in NNE 4.6 mph 6.9 mph 67 % 0.00 in
08:00 56.0 °F 45.2 °F 30.07 in WNW 3.3 mph 6.9 mph 67 % 0.00 in
08:05 56.1 °F 44.5 °F 30.06 in NW 2.7 mph 4.6 mph 65 % 0.00 in
08:10 56.2 °F 45.0 °F 30.07 in NW 1.0 mph 4.0 mph 66 % 0.00 in
08:15 56.2 °F 44.6 °F 30.06 in NNE 3.6 mph 6.9 mph 65 % 0.00 in
08:20 56.3 °F 45.1 °F 30.07 in WNW 2.6 mph 7.0 mph 66 % 0.00 in
08:25 56.3 °F 45.1 °F 30.07 in North 1.8 mph 5.8 mph 66 % 0.00 in
08:30 56.4 °F 44.8 °F 30.07 in NW 0.9 mph 6.9 mph 65 % 0.00 in
08:35 56.4 °F 44.8 °F 30.07 in NW 1.6 mph 8.1 mph 65 % 0.00 in
08:40 56.5 °F 44.9 °F 30.07 in NE 3.8 mph 4.0 mph 65 % 0.00 in
08:45 56.6 °F 45.4 °F 30.08 in NW 2.2 mph 3.5 mph 66 % 0.00 in
08:50 56.8 °F 45.6 °F 30.07 in WNW 1.6 mph 4.6 mph 66 % 0.00 in
08:55 57.0 °F 46.1 °F 30.07 in North 0.7 mph 6.9 mph 67 % 0.00 in
09:01 57.1 °F 45.4 °F 30.07 in WNW 3.3 mph 4.0 mph 65 % 0.00 in
09:06 57.2 °F 45.1 °F 30.07 in North 5.1 mph 8.1 mph 64 % 0.00 in
09:11 57.3 °F 45.2 °F 30.08 in North 2.7 mph 4.6 mph 64 % 0.00 in
09:16 57.4 °F 45.3 °F 30.07 in NE 3.6 mph 6.9 mph 64 % 0.00 in
09:21 57.5 °F 45.8 °F 30.07 in North 4.6 mph 9.0 mph 65 % 0.00 in
09:26 57.7 °F 45.2 °F 30.07 in NW 2.7 mph 6.9 mph 63 % 0.00 in
09:31 58.0 °F 45.9 °F 30.07 in NNW 3.5 mph 8.1 mph 64 % 0.00 in
09:36 58.2 °F 46.1 °F 30.07 in NNE 1.6 mph 3.5 mph 64 % 0.00 in
09:41 58.5 °F 46.4 °F 30.07 in NNE 1.7 mph 5.8 mph 64 % 0.00 in
09:46 59.0 °F 47.2 °F 30.07 in West 1.7 mph 3.5 mph 65 % 0.00 in
09:51 59.8 °F 46.3 °F 30.07 in North 3.9 mph 6.0 mph 61 % 0.00 in
09:56 60.7 °F 46.7 °F 30.07 in NNE 3.0 mph 8.0 mph 60 % 0.00 in
10:01 61.4 °F 46.9 °F 30.07 in WSW 1.8 mph 4.0 mph 59 % 0.00 in
10:07 61.8 °F 46.9 °F 30.07 in North 3.3 mph 5.8 mph 58 % 0.00 in
10:11 62.0 °F 46.6 °F 30.07 in NNW 5.4 mph 8.1 mph 57 % 0.00 in
10:17 62.0 °F 46.1 °F 30.07 in North 2.5 mph 6.9 mph 56 % 0.00 in
10:22 61.9 °F 46.0 °F 30.07 in NW 4.0 mph 11.5 mph 56 % 0.00 in
10:27 61.8 °F 46.4 °F 30.07 in NNE 3.9 mph 5.8 mph 57 % 0.00 in
10:32 61.7 °F 46.3 °F 30.07 in NW 2.3 mph 3.5 mph 57 % 0.00 in
10:37 61.7 °F 45.8 °F 30.07 in NNW 1.8 mph 6.9 mph 56 % 0.00 in
10:42 61.8 °F 45.5 °F 30.07 in WNW 2.3 mph 10.4 mph 55 % 0.00 in
10:47 61.9 °F 46.5 °F 30.07 in NW 2.5 mph 4.6 mph 57 % 0.00 in
10:52 62.0 °F 46.1 °F 30.07 in West 3.6 mph 8.1 mph 56 % 0.00 in
10:57 62.4 °F 45.0 °F 30.07 in North 3.6 mph 5.8 mph 53 % 0.00 in
11:02 63.2 °F 46.3 °F 30.07 in NNW 2.7 mph 5.8 mph 54 % 0.00 in
11:07 64.1 °F 45.6 °F 30.08 in NW 2.0 mph 4.6 mph 51 % 0.00 in
11:12 65.0 °F 46.4 °F 30.07 in North 5.5 mph 8.1 mph 51 % 0.00 in
11:17 65.9 °F 47.8 °F 30.07 in NW 2.2 mph 3.5 mph 52 % 0.00 in
11:22 66.9 °F 46.0 °F 30.08 in WNW 4.8 mph 6.9 mph 47 % 0.00 in
11:27 67.7 °F 46.2 °F 30.08 in North 4.6 mph 5.8 mph 46 % 0.00 in
11:32 68.3 °F 46.7 °F 30.07 in North 1.9 mph 4.6 mph 46 % 0.00 in
11:37 68.8 °F 47.2 °F 30.07 in NW 4.4 mph 7.0 mph 46 % 0.00 in
11:42 69.5 °F 50.0 °F 30.07 in NE 1.4 mph 3.5 mph 50 % 0.00 in
11:47 70.1 °F 45.9 °F 30.07 in WNW 3.2 mph 8.1 mph 42 % 0.00 in
11:52 70.6 °F 47.6 °F 30.07 in North 0.7 mph 4.6 mph 44 % 0.00 in
11:57 71.3 °F 50.6 °F 30.07 in NW 0.5 mph 3.5 mph 48 % 0.00 in
12:02 71.8 °F 46.8 °F 30.07 in WNW 0.6 mph 5.8 mph 41 % 0.00 in
12:07 72.1 °F 45.8 °F 30.07 in NW 2.3 mph 8.1 mph 39 % 0.00 in
12:12 72.2 °F 46.5 °F 30.07 in WNW 2.1 mph 4.6 mph 40 % 0.00 in
12:18 72.5 °F 47.5 °F 30.07 in West 2.9 mph 5.8 mph 41 % 0.00 in
12:23 72.7 °F 50.1 °F 30.07 in NE 2.8 mph 6.9 mph 45 % 0.00 in
12:28 73.3 °F 48.2 °F 30.07 in North 3.3 mph 8.0 mph 41 % 0.00 in
12:33 73.4 °F 48.3 °F 30.06 in NW 1.5 mph 6.9 mph 41 % 0.00 in
12:38 73.6 °F 48.4 °F 30.06 in NW 3.8 mph 9.2 mph 41 % 0.00 in
12:43 73.8 °F 48.0 °F 30.06 in NNE 2.8 mph 5.8 mph 40 % 0.00 in
12:44 73.8 °F 48.6 °F 30.06 in NNW 1.1 mph 5.8 mph 41 % 0.00 in
12:49 73.9 °F 50.0 °F 30.06 in NNE 1.0 mph 4.6 mph 43 % 0.00 in
12:54 74.0 °F 50.1 °F 30.06 in North 0.3 mph 5.8 mph 43 % 0.00 in
12:59 74.0 °F 46.1 °F 30.06 in NNE 5.1 mph 8.1 mph 37 % 0.00 in
13:04 74.0 °F 50.1 °F 30.06 in NNW 4.8 mph 9.2 mph 43 % 0.00 in
13:09 74.0 °F 49.4 °F 30.06 in NW 1.7 mph 4.6 mph 42 % 0.00 in
13:14 73.9 °F 46.7 °F 30.06 in NW 1.1 mph 3.5 mph 38 % 0.00 in
13:19 74.0 °F 49.4 °F 30.06 in NNW 0.6 mph 5.0 mph 42 % 0.00 in
13:24 74.2 °F 46.2 °F 30.06 in NNW 1.0 mph 3.5 mph 37 % 0.00 in
13:29 74.3 °F 44.9 °F 30.05 in WNW 5.4 mph 10.0 mph 35 % 0.00 in
13:34 74.0 °F 45.3 °F 30.05 in WNW 2.1 mph 5.0 mph 36 % 0.00 in
13:39 73.9 °F 47.4 °F 30.05 in SW 3.6 mph 8.1 mph 39 % 0.00 in
13:44 74.0 °F 44.6 °F 30.05 in NNW 3.4 mph 8.1 mph 35 % 0.00 in
13:49 74.1 °F 46.9 °F 30.05 in West 1.7 mph 4.6 mph 38 % 0.00 in
13:54 74.3 °F 47.0 °F 30.05 in WNW 2.3 mph 4.6 mph 38 % 0.00 in
13:59 74.5 °F 45.0 °F 30.05 in NNE 1.5 mph 4.6 mph 35 % 0.00 in
14:04 74.4 °F 47.8 °F 30.04 in NNE 0.2 mph 1.2 mph 39 % 0.00 in
14:09 74.6 °F 46.6 °F 30.04 in WNW 2.2 mph 4.0 mph 37 % 0.00 in
14:14 74.7 °F 46.0 °F 30.04 in NW 2.3 mph 5.0 mph 36 % 0.00 in
14:19 74.7 °F 45.2 °F 30.04 in NW 2.2 mph 3.5 mph 35 % 0.00 in
14:24 74.7 °F 46.0 °F 30.04 in North 0.6 mph 5.8 mph 36 % 0.00 in
14:29 74.6 °F 47.3 °F 30.04 in NW 1.9 mph 3.5 mph 38 % 0.00 in
14:34 74.7 °F 47.4 °F 30.04 in NW 2.4 mph 4.0 mph 38 % 0.00 in
14:39 74.7 °F 44.5 °F 30.04 in NNW 3.3 mph 6.9 mph 34 % 0.00 in
14:44 74.7 °F 45.2 °F 30.04 in NNE 1.2 mph 3.5 mph 35 % 0.00 in
14:49 74.7 °F 47.4 °F 30.03 in NNE 2.4 mph 5.0 mph 38 % 0.00 in
14:54 74.5 °F 45.0 °F 30.04 in NW 2.9 mph 6.0 mph 35 % 0.00 in
15:00 74.5 °F 44.3 °F 30.04 in WNW 2.4 mph 6.9 mph 34 % 0.00 in
15:05 74.4 °F 45.7 °F 30.04 in NW 2.4 mph 4.0 mph 36 % 0.00 in
15:10 74.3 °F 44.9 °F 30.04 in West 3.6 mph 8.0 mph 35 % 0.00 in
15:15 74.2 °F 44.8 °F 30.04 in West 4.7 mph 8.1 mph 35 % 0.00 in
15:20 74.2 °F 44.8 °F 30.04 in NNW 1.6 mph 5.0 mph 35 % 0.00 in
15:25 74.3 °F 45.6 °F 30.03 in WNW 0.7 mph 3.5 mph 36 % 0.00 in
15:30 74.4 °F 46.4 °F 30.03 in NNW 2.2 mph 6.0 mph 37 % 0.00 in
15:35 74.5 °F 44.3 °F 30.03 in WNW 2.0 mph 3.5 mph 34 % 0.00 in
15:40 74.6 °F 46.6 °F 30.03 in NNE 1.2 mph 3.5 mph 37 % 0.00 in
15:45 74.4 °F 45.0 °F 30.03 in WNW 0.7 mph 3.0 mph 35 % 0.00 in
15:50 74.5 °F 44.3 °F 30.03 in WNW 0.8 mph 2.3 mph 34 % 0.00 in
15:55 74.4 °F 45.7 °F 30.03 in North 2.0 mph 3.5 mph 36 % 0.00 in
16:00 74.3 °F 47.0 °F 30.03 in NNW 0.2 mph 1.2 mph 38 % 0.00 in
16:05 74.3 °F 45.6 °F 30.03 in NW 3.5 mph 5.8 mph 36 % 0.00 in
16:10 74.1 °F 46.2 °F 30.03 in West 2.3 mph 6.9 mph 37 % 0.00 in
16:15 74.1 °F 45.4 °F 30.03 in NW 3.5 mph 6.9 mph 36 % 0.00 in
16:20 73.9 °F 46.0 °F 30.02 in WNW 1.8 mph 4.0 mph 37 % 0.00 in
16:25 73.8 °F 48.0 °F 30.03 in WNW 2.0 mph 3.5 mph 40 % 0.00 in
16:30 73.6 °F 47.1 °F 30.03 in WNW 3.1 mph 4.6 mph 39 % 0.00 in
16:35 73.6 °F 48.4 °F 30.03 in West 1.8 mph 3.0 mph 41 % 0.00 in
16:40 73.3 °F 46.8 °F 30.03 in WSW 1.5 mph 6.0 mph 39 % 0.00 in
16:45 73.0 °F 45.2 °F 30.03 in West 4.3 mph 5.8 mph 37 % 0.00 in
16:50 72.8 °F 46.4 °F 30.03 in West 3.0 mph 4.6 mph 39 % 0.00 in
16:55 72.6 °F 45.5 °F 30.03 in West 3.8 mph 5.8 mph 38 % 0.00 in
17:00 72.6 °F 46.2 °F 30.03 in NNE 1.2 mph 6.9 mph 39 % 0.00 in
17:05 72.4 °F 46.0 °F 30.03 in NW 1.2 mph 3.0 mph 39 % 0.00 in
17:10 72.2 °F 46.5 °F 30.02 in NW 1.7 mph 3.5 mph 40 % 0.00 in
17:15 72.0 °F 46.3 °F 30.03 in WNW 2.7 mph 5.8 mph 40 % 0.00 in
17:21 71.9 °F 46.3 °F 30.02 in WNW 1.8 mph 3.0 mph 40 % 0.00 in
17:26 71.7 °F 46.7 °F 30.02 in Calm   5.0 mph 41 % 0.00 in
17:31 71.6 °F 46.6 °F 30.02 in WNW 2.0 mph 6.0 mph 41 % 0.00 in
17:36 71.4 °F 45.8 °F 30.03 in WNW 2.0 mph 6.0 mph 40 % 0.00 in
17:41 71.2 °F 45.0 °F 30.02 in WNW 3.0 mph 4.6 mph 39 % 0.00 in
17:46 71.1 °F 46.2 °F 30.03 in West 1.7 mph 3.5 mph 41 % 0.00 in
17:51 70.9 °F 45.4 °F 30.03 in WNW 1.4 mph 3.5 mph 40 % 0.00 in
17:56 70.7 °F 45.2 °F 30.03 in WNW 1.9 mph 6.9 mph 40 % 0.00 in
18:01 70.4 °F 45.6 °F 30.03 in WNW 1.3 mph 3.5 mph 41 % 0.00 in
18:06 70.2 °F 45.4 °F 30.03 in NW 4.3 mph 6.9 mph 41 % 0.00 in
18:11 70.0 °F 45.8 °F 30.03 in WNW 0.5 mph 3.0 mph 42 % 0.00 in
18:16 69.8 °F 45.7 °F 30.02 in WNW 2.4 mph 5.8 mph 42 % 0.00 in
18:21 69.6 °F 45.5 °F 30.03 in WNW 1.4 mph 3.5 mph 42 % 0.00 in
18:26 69.4 °F 46.5 °F 30.03 in West 0.1 mph 1.2 mph 44 % 0.00 in
18:31 69.2 °F 45.7 °F 30.03 in NNW 0.6 mph 3.5 mph 43 % 0.00 in
18:36 68.9 °F 45.5 °F 30.03 in WNW 0.4 mph 3.0 mph 43 % 0.00 in
18:41 68.8 °F 46.6 °F 30.03 in ENE 2.7 mph 3.5 mph 45 % 0.00 in
18:46 68.5 °F 45.7 °F 30.04 in NNW 0.3 mph 4.0 mph 44 % 0.00 in
18:51 68.3 °F 44.9 °F 30.04 in WSW 1.6 mph 5.8 mph 43 % 0.00 in
18:56 68.1 °F 45.4 °F 30.04 in NW 2.3 mph 5.8 mph 44 % 0.00 in
19:01 67.9 °F 45.2 °F 30.04 in NNW 0.3 mph 2.3 mph 44 % 0.00 in
19:07 67.7 °F 45.0 °F 30.04 in WNW 0.5 mph 3.5 mph 44 % 0.00 in
19:12 67.6 °F 44.9 °F 30.04 in WSW 2.3 mph 3.5 mph 44 % 0.00 in
19:17 67.5 °F 45.4 °F 30.04 in NW 2.0 mph 3.5 mph 45 % 0.00 in
19:22 67.4 °F 45.3 °F 30.05 in NW 0.3 mph 5.8 mph 45 % 0.00 in
19:27 67.2 °F 45.1 °F 30.05 in NNW 0.1 mph 1.0 mph 45 % 0.00 in
19:32 67.1 °F 44.4 °F 30.05 in NNE 0.9 mph 3.5 mph 44 % 0.00 in
19:37 67.0 °F 44.9 °F 30.06 in WNW 0.1 mph 1.0 mph 45 % 0.00 in
19:42 66.9 °F 44.9 °F 30.06 in Calm   1.2 mph 45 % 0.00 in
19:47 66.8 °F 44.8 °F 30.06 in WNW 1.6 mph 3.5 mph 45 % 0.00 in
19:52 66.7 °F 44.7 °F 30.06 in WNW 0.3 mph 1.2 mph 45 % 0.00 in
19:57 66.6 °F 45.2 °F 30.06 in WNW 0.2 mph 1.2 mph 46 % 0.00 in
20:02 66.5 °F 44.5 °F 30.07 in WNW 2.4 mph 4.6 mph 45 % 0.00 in
20:07 66.4 °F 44.4 °F 30.07 in West 2.9 mph 6.9 mph 45 % 0.00 in
20:12 66.3 °F 44.9 °F 30.07 in WNW 0.2 mph 2.3 mph 46 % 0.00 in
20:17 66.3 °F 45.5 °F 30.08 in Calm   1.2 mph 47 % 0.00 in
20:23 66.3 °F 46.0 °F 30.08 in West 0.6 mph 4.6 mph 48 % 0.00 in
20:27 66.3 °F 46.0 °F 30.08 in West 1.4 mph 3.0 mph 48 % 0.00 in
20:32 66.3 °F 46.0 °F 30.09 in WNW 1.8 mph 4.6 mph 48 % 0.00 in
20:37 66.2 °F 45.9 °F 30.08 in NW 1.2 mph 3.5 mph 48 % 0.00 in
20:42 66.1 °F 45.8 °F 30.08 in WNW 0.3 mph 3.5 mph 48 % 0.00 in
20:47 66.1 °F 45.8 °F 30.09 in North 1.9 mph 5.0 mph 48 % 0.00 in
20:53 66.0 °F 46.3 °F 30.09 in NE 1.5 mph 5.8 mph 49 % 0.00 in
20:58 66.1 °F 46.4 °F 30.09 in WNW 2.9 mph 4.6 mph 49 % 0.00 in
21:03 66.1 °F 47.4 °F 30.09 in NNE 2.1 mph 4.6 mph 51 % 0.00 in
21:08 66.1 °F 48.5 °F 30.10 in NNE 2.7 mph 4.0 mph 53 % 0.00 in
21:13 66.1 °F 49.0 °F 30.10 in ENE 1.3 mph 6.0 mph 54 % 0.00 in
21:18 66.1 °F 49.0 °F 30.10 in ENE 0.6 mph 2.3 mph 54 % 0.00 in
21:23 65.9 °F 48.3 °F 30.10 in NNE 3.8 mph 6.9 mph 53 % 0.00 in
21:28 65.8 °F 47.7 °F 30.09 in NNE 3.1 mph 4.6 mph 52 % 0.00 in
21:33 65.6 °F 48.0 °F 30.09 in North 4.3 mph 6.9 mph 53 % 0.00 in
21:38 65.5 °F 47.9 °F 30.09 in ENE 2.6 mph 5.8 mph 53 % 0.00 in
21:43 65.4 °F 47.8 °F 30.10 in NNE 2.4 mph 5.8 mph 53 % 0.00 in
21:48 65.4 °F 47.8 °F 30.10 in NNE 3.9 mph 5.8 mph 53 % 0.00 in
21:53 65.3 °F 47.7 °F 30.11 in NNW 1.5 mph 4.6 mph 53 % 0.00 in
21:58 65.2 °F 47.1 °F 30.11 in ENE 1.7 mph 7.0 mph 52 % 0.00 in
22:03 65.2 °F 47.6 °F 30.12 in NNE 1.8 mph 5.0 mph 53 % 0.00 in
22:08 65.0 °F 46.9 °F 30.12 in NNE 3.2 mph 4.6 mph 52 % 0.00 in
22:13 64.9 °F 46.3 °F 30.12 in NNE 2.8 mph 3.5 mph 51 % 0.00 in
22:18 64.8 °F 47.3 °F 30.12 in ENE 4.5 mph 6.9 mph 53 % 0.00 in
22:23 64.7 °F 46.7 °F 30.12 in NE 5.6 mph 9.2 mph 52 % 0.00 in
22:24 64.7 °F 47.2 °F 30.12 in NNE 3.9 mph 6.0 mph 53 % 0.00 in
22:29 64.7 °F 48.2 °F 30.12 in NE 3.5 mph 8.1 mph 55 % 0.00 in
22:34 64.6 °F 48.1 °F 30.13 in NNE 0.9 mph 6.9 mph 55 % 0.00 in
22:39 64.5 °F 47.0 °F 30.14 in NE 3.5 mph 7.0 mph 53 % 0.00 in
22:44 64.3 °F 45.3 °F 30.14 in NNE 3.4 mph 8.1 mph 50 % 0.00 in
22:49 64.1 °F 44.5 °F 30.14 in NNE 3.2 mph 7.0 mph 49 % 0.00 in
22:54 64.0 °F 44.4 °F 30.14 in NNE 4.2 mph 6.0 mph 49 % 0.00 in
22:59 63.7 °F 44.7 °F 30.14 in North 2.4 mph 4.6 mph 50 % 0.00 in
23:04 63.6 °F 44.1 °F 30.13 in NNE 4.7 mph 8.1 mph 49 % 0.00 in
23:06 63.6 °F 44.1 °F 30.13 in NNE 5.0 mph 8.0 mph 49 % 0.00 in
23:11 63.4 °F 45.5 °F 30.13 in NNE 5.8 mph 11.5 mph 52 % 0.00 in
23:16 63.2 °F 44.8 °F 30.13 in NNE 5.7 mph 11.5 mph 51 % 0.00 in
23:21 63.2 °F 44.8 °F 30.13 in NNE 7.8 mph 11.5 mph 51 % 0.00 in
23:23 63.2 °F 44.8 °F 30.13 in NNE 6.6 mph 10.4 mph 51 % 0.00 in
23:26 63.1 °F 44.7 °F 30.13 in NNE 6.0 mph 12.0 mph 51 % 0.00 in
23:31 63.1 °F 45.2 °F 30.13 in NNE 5.0 mph 9.0 mph 52 % 0.00 in
23:34 63.1 °F 45.2 °F 30.13 in North 5.9 mph 11.5 mph 52 % 0.00 in
23:37 63.1 °F 45.7 °F 30.13 in NNE 8.4 mph 15.0 mph 53 % 0.00 in
23:42 63.0 °F 45.6 °F 30.13 in North 7.8 mph 15.0 mph 53 % 0.00 in
23:47 62.9 °F 45.5 °F 30.13 in NNE 5.3 mph 8.1 mph 53 % 0.00 in
23:52 62.9 °F 45.0 °F 30.13 in NNE 7.5 mph 12.7 mph 52 % 0.00 in
23:57 62.8 °F 45.9 °F 30.14 in North 4.4 mph 6.9 mph 54 % 0.00 in
Crab Meadow Weather
Compliments of Weather Underground - 3 mb

Script developed by  Jim McMurry - jmcmurry@mwt.net Adapted for the template by  Wim van der Kuil - Leuven-Template.eu

Recycling: The average American uses seven trees a year in paper, wood, and other products made from trees. This amounts to about 2,000,000,000 trees per year!